Poplar Bluff, MO

1:08 PM CST on February 22, 2017 (GMT -0600)
Poplar Bluff Municipal

Weather History for KPOF - January, 2014

Change the Weather History Date:

Sunday, January 5, 2014

  Actual Average Record
Temperature  
Mean Temperature 26 °F -  
Max Temperature 37 °F 41 °F 69 °F (1955)
Min Temperature 12 °F 21 °F -3 °F (1924)
Degree Days  
Heating Degree Days 40    
Moisture  
Dew Point 24 °F    
Average Humidity 76    
Maximum Humidity 87    
Minimum Humidity 47    
Precipitation  
Precipitation 0.84 in - - ()
Sea Level Pressure  
Sea Level Pressure 29.87 in    
Wind  
Wind Speed 11 mph (North)    
Max Wind Speed 28 mph    
Max Gust Speed 37 mph    
Visibility 5 miles    
Events Rain , Snow    
Averages and records for this station are not official NWS values.
T = Trace of Precipitation, MM = Missing Value Source: NWS Daily Summary

Daily Weather History Graph

Daily Weather History Graph

Search for Another Location

Airport or City:

Trip Planner

Search our weather history database for the weather conditions in past years. The results will help you decide how hot, cold, wet, or windy it might be!

Date:

Astronomy

Jan. 05, 2014 Rise Set
Actual Time 7:14 AM CST 4:59 PM CST
Civil Twilight 6:45 AM CST 5:28 PM CST
Nautical Twilight 6:13 AM CST 6:00 PM CST
Astronomical Twilight 5:42 AM CST 6:31 PM CST
Moon 10:04 AM CST (1/5) 10:18 PM CST (1/5)
Length of Visible Light 10h 42m
Length of Day
9h 44m
Waxing Crescent, 25% of the Moon is Illuminated
Jan 5
Waxing Crescent
Jan 7
First Quarter
Jan 15
Full
Jan 23
Last Quarter
Jan 30
New

Hourly Weather History & Observations

Time (CST) Temp. Windchill Dew Point Humidity Pressure Visibility Wind Dir Wind Speed Gust Speed Precip Events Conditions
12:53 AM 37.9 °F 35.5 °F 27.0 °F 65% 29.90 in 10.0 mi ENE 3.5 mph - 0.00 in Rain Light Rain
1:53 AM 37.9 °F 35.5 °F 28.9 °F 70% 29.89 in 9.0 mi NNE 3.5 mph - 0.00 in Rain Light Rain
2:11 AM 37.0 °F 31.6 °F 28.9 °F 73% 29.86 in 9.0 mi NE 6.9 mph - 0.00 in Rain Light Rain
2:21 AM 36.0 °F 28.0 °F 28.9 °F 76% 29.86 in 10.0 mi NE 11.5 mph - 0.00 in   Overcast
2:32 AM 36.0 °F 29.0 °F 28.9 °F 76% 29.86 in 10.0 mi NNE 9.2 mph - 0.00 in   Overcast
2:53 AM 36.0 °F 29.6 °F 30.0 °F 79% 29.88 in 8.0 mi NNE 8.1 mph - 0.00 in Rain Light Rain
3:44 AM 36.0 °F 32.1 °F 32.0 °F 86% 29.85 in 5.0 mi North 4.6 mph - 0.05 in Rain Light Rain
3:53 AM 36.0 °F 30.3 °F 32.0 °F 86% 29.86 in 6.0 mi NNE 6.9 mph - 0.05 in   Overcast
4:28 AM 36.0 °F 29.0 °F 32.0 °F 86% 29.82 in 4.0 mi NNE 9.2 mph - 0.00 in Rain Light Rain
4:48 AM 35.6 °F 29.2 °F 32.0 °F 87% 29.82 in 5.0 mi NNE 8.1 mph - 0.01 in   Overcast
4:53 AM 36.0 °F 29.0 °F 32.0 °F 86% 29.83 in 5.0 mi NNE 9.2 mph - 0.01 in   Overcast
4:59 AM 36.0 °F 28.5 °F 32.0 °F 86% 29.81 in 5.0 mi NNE 10.4 mph - N/A   Overcast
5:36 AM 36.0 °F 29.0 °F 30.9 °F 82% 29.78 in 4.0 mi NE 9.2 mph - 0.00 in   Haze
5:40 AM 36.0 °F 29.6 °F 32.0 °F 86% 29.77 in 4.0 mi NE 8.1 mph - 0.00 in   Overcast
5:53 AM 36.0 °F 30.3 °F 32.0 °F 86% 29.79 in 4.0 mi NE 6.9 mph - 0.00 in   Overcast
6:09 AM 36.0 °F 29.6 °F 32.0 °F 86% 29.76 in 2.5 mi NE 8.1 mph - 0.03 in Rain Rain
6:19 AM 36.0 °F 30.3 °F 32.0 °F 86% 29.76 in 3.0 mi NE 6.9 mph - 0.05 in Rain Light Rain
6:36 AM 36.0 °F 30.3 °F 32.0 °F 86% 29.75 in 2.5 mi ENE 6.9 mph - 0.10 in Rain Light Rain
6:44 AM 36.0 °F 29.6 °F 32.0 °F 86% 29.75 in 4.0 mi NNE 8.1 mph - 0.10 in Rain Light Rain
6:53 AM 36.0 °F 28.0 °F 32.0 °F 86% 29.78 in 4.0 mi NNW 11.5 mph - 0.11 in   Overcast
7:14 AM 37.9 °F 32.1 °F 33.1 °F 83% 29.74 in 4.0 mi NNE 8.1 mph - 0.04 in Rain Light Rain
7:53 AM 37.0 °F 29.8 °F 33.1 °F 86% 29.77 in 3.0 mi North 10.4 mph - 0.14 in Rain Light Rain
8:20 AM 37.9 °F 32.7 °F 34.0 °F 86% 29.73 in 2.5 mi NNE 6.9 mph - 0.10 in Rain Rain
8:36 AM 37.9 °F 32.1 °F 34.0 °F 86% 29.73 in 3.0 mi NNE 8.1 mph - 0.14 in Rain Light Rain
8:46 AM 37.9 °F 32.7 °F 34.0 °F 86% 29.73 in 2.0 mi North 6.9 mph - 0.18 in Rain Heavy Rain
8:53 AM 37.0 °F 32.4 °F 33.1 °F 86% 29.75 in 2.0 mi North 5.8 mph - 0.21 in Rain Rain
9:07 AM 37.0 °F 29.8 °F 33.1 °F 86% 29.73 in 3.0 mi NNW 10.4 mph - 0.07 in Rain Rain
9:20 AM 37.0 °F 28.9 °F 33.1 °F 86% 29.74 in 2.5 mi NNW 12.7 mph - 0.17 in Rain Heavy Rain
9:31 AM 37.0 °F 28.1 °F 32.0 °F 82% 29.73 in 3.0 mi North 15.0 mph - 0.22 in Rain Rain
9:53 AM 37.0 °F 28.9 °F 32.0 °F 82% 29.75 in 3.0 mi North 12.7 mph - 0.27 in Rain Rain
10:20 AM 37.0 °F 28.5 °F 32.0 °F 82% 29.75 in 2.5 mi NNW 13.8 mph - 0.01 in Snow Light Snow
10:38 AM 34.0 °F 22.7 °F 28.9 °F 82% 29.75 in 2.0 mi NNW 19.6 mph - 0.03 in Snow Light Snow
10:53 AM 33.1 °F 23.0 °F 28.0 °F 82% 29.75 in 4.0 mi NNW 15.0 mph 24.2 mph 0.04 in Rain Light Rain
11:22 AM 32.0 °F 20.8 °F 25.0 °F 75% 29.74 in 9.0 mi North 17.3 mph - 0.00 in   Overcast
11:53 AM 30.0 °F 16.6 °F 23.0 °F 75% 29.78 in 9.0 mi NNW 23.0 mph 28.8 mph 0.00 in   Overcast
12:44 PM 28.0 °F 15.3 °F 21.0 °F 75% 29.78 in 1.8 mi NW 18.4 mph 24.2 mph 0.00 in Snow Light Snow
12:53 PM 28.0 °F 14.9 °F 21.0 °F 75% 29.81 in 1.0 mi NW 19.6 mph 27.6 mph 0.00 in Snow Light Snow
1:11 PM 26.1 °F 10.1 °F 19.0 °F 75% 29.80 in 2.0 mi NNW 27.6 mph 36.8 mph 0.00 in Snow Light Snow
1:53 PM 26.1 °F 12.0 °F 18.0 °F 71% 29.84 in 2.0 mi NNW 20.7 mph 32.2 mph 0.01 in Snow Light Snow
2:03 PM 25.0 °F 11.7 °F 18.0 °F 75% 29.83 in 4.0 mi NNW 17.3 mph 29.9 mph 0.00 in Snow Light Snow
2:33 PM 25.0 °F 10.6 °F 17.1 °F 72% 29.85 in 2.5 mi NW 20.7 mph 29.9 mph 0.00 in Snow Light Snow
2:42 PM 24.1 °F 8.7 °F 16.0 °F 71% 29.87 in 4.0 mi NNW 23.0 mph 29.9 mph 0.00 in Snow Light Snow
2:53 PM 25.0 °F 11.7 °F 16.0 °F 69% 29.90 in 6.0 mi NNW 17.3 mph 27.6 mph 0.00 in Snow Light Snow
3:07 PM 24.1 °F 7.7 °F 15.1 °F 69% 29.89 in 6.0 mi NNW 26.5 mph 34.5 mph 0.00 in Snow Light Snow
3:53 PM 23.0 °F 9.2 °F 14.0 °F 68% 29.98 in 6.0 mi NW 17.3 mph 25.3 mph 0.00 in Snow Light Snow
4:19 PM 21.9 °F 5.1 °F 12.0 °F 66% 29.98 in 8.0 mi NNW 25.3 mph 33.4 mph 0.00 in Snow Light Snow
4:53 PM 21.9 °F 7.3 °F 12.0 °F 66% 30.04 in 10.0 mi NNW 18.4 mph 27.6 mph 0.00 in   Overcast
5:53 PM 19.9 °F 2.8 °F 10.9 °F 68% 30.09 in 4.0 mi NW 24.2 mph 32.2 mph 0.00 in Snow Light Snow
6:23 PM 19.0 °F 1.3 °F 10.0 °F 68% 30.10 in 7.0 mi NW 25.3 mph 32.2 mph 0.00 in Snow Light Snow
6:53 PM 19.0 °F 2.0 °F 8.1 °F 62% 30.14 in 10.0 mi NW 23.0 mph 36.8 mph 0.00 in   Overcast
7:53 PM 18.0 °F -0.5 °F 6.1 °F 60% 30.22 in 10.0 mi NNW 26.5 mph 35.7 mph N/A   Mostly Cloudy
8:53 PM 17.1 °F 1.5 °F 3.0 °F 54% 30.28 in 10.0 mi NNW 17.3 mph 28.8 mph N/A   Clear
9:53 PM 15.1 °F -2.0 °F -0.0 °F 51% 30.30 in 10.0 mi NNW 19.6 mph 27.6 mph N/A   Clear
10:53 PM 14.0 °F -2.5 °F -2.9 °F 47% 30.33 in 10.0 mi NW 17.3 mph 28.8 mph N/A   Clear
11:53 PM 12.9 °F -2.8 °F -4.0 °F 47% 30.36 in 10.0 mi NW 15.0 mph 23.0 mph N/A   Clear